DW2893 Weather Reports


Display with metric or nautical units.
time (UTC)temp
F
wind
direction
speed
MPH
gust
MPH
rain 1hr
in
rain 24hr
in
rain mn
in
humidity
%
barometer
mb
20260505195307 88 191 6.0 12.0 0.00 0.00 0.00 60 1002.8
20260505193807 87 201 7.0 18.0 0.00 0.00 0.00 61 1002.8
20260505191307 86 188 12.0 20.0 0.00 0.00 0.00 62 1002.8
20260505183807 84 203 10.0 21.0 0.00 0.00 0.00 65 1003.0
20260505183307 84 190 13.0 21.0 0.00 0.00 0.00 65 1003.0
20260505182308 83 176 9.0 20.0 0.00 0.00 0.00 66 1003.0
20260505175807 83 218 10.0 23.0 0.00 0.00 0.00 69 1003.0
20260505175307 83 217 7.0 15.0 0.00 0.00 0.00 69 1003.0
20260505173807 82 194 9.0 18.0 0.00 0.00 0.00 70 1003.2
20260505173307 82 192 10.0 21.0 0.00 0.00 0.00 71 1003.2
20260505172807 81 198 12.0 20.0 0.00 0.00 0.00 71 1003.2
20260505170807 80 184 7.0 20.0 0.00 0.00 0.00 74 1003.3
20260505170307 80 183 13.0 25.0 0.00 0.00 0.00 73 1003.3
20260505165807 80 183 12.0 20.0 0.00 0.00 0.00 73 1003.2
20260505165307 80 183 10.0 21.0 0.00 0.00 0.00 74 1003.2
20260505164307 79 174 10.0 23.0 0.00 0.00 0.00 75 1003.2
20260505163806 79 195 12.0 26.0 0.00 0.00 0.00 75 1003.2
20260505163307 79 173 13.0 28.0 0.00 0.00 0.00 75 1003.2
20260505162806 78 202 12.0 25.0 0.00 0.00 0.00 75 1003.1
20260505162307 78 193 13.0 26.0 0.00 0.00 0.00 75 1003.1
20260505161807 78 183 12.0 26.0 0.00 0.00 0.00 75 1003.1
20260505161307 78 179 12.0 24.0 0.00 0.00 0.00 75 1002.8
20260505160307 78 193 13.0 24.0 0.00 0.00 0.00 76 1002.8
20260505151806 75 187 11.0 26.0 0.00 0.00 0.00 80 1002.8
20260505151306 75 183 12.0 25.0 0.00 0.00 0.00 80 1002.8
20260505150306 75 175 14.0 25.0 0.00 0.00 0.00 79 1002.8
20260505130306 72 180 10.0 18.0 0.00 0.00 0.00 85 1002.4
20260505124806 72 189 14.0 25.0 0.00 0.00 0.00 85 1002.4
20260505124305 71 184 13.0 25.0 0.00 0.00 0.00 85 1002.1
20260505123806 71 209 8.0 20.0 0.00 0.00 0.00 85 1002.1
20260505122306 71 203 11.0 20.0 0.00 0.00 0.00 85 1002.0
20260505120806 72 195 14.0 25.0 0.00 0.00 0.00 84 1001.9
20260505115806 72 200 14.0 26.0 0.00 0.00 0.00 84 1001.8
20260505113806 72 203 13.0 29.0 0.00 0.00 0.00 84 1001.6
20260505111305 72 182 12.0 26.0 0.00 0.00 0.00 84 1001.5
20260505100805 71 181 11.0 20.0 0.00 0.00 0.00 84 1001.8
20260505100305 71 202 13.0 25.0 0.00 0.00 0.00 84 1001.6
20260505095805 71 175 13.0 22.0 0.00 0.00 0.00 84 1001.8
20260505095305 71 191 13.0 24.0 0.00 0.00 0.00 84 1001.8
20260505094806 71 199 12.0 20.0 0.00 0.00 0.00 84 1001.8
20260505094305 71 187 11.0 21.0 0.00 0.00 0.00 84 1002.0
20260505090805 71 192 13.0 25.0 0.00 0.00 0.00 85 1002.2
20260505090305 71 191 12.0 24.0 0.00 0.00 0.00 85 1002.2
20260505085806 71 198 11.0 20.0 0.00 0.00 0.00 84 1002.2
20260505084805 71 174 12.0 24.0 0.00 0.00 0.00 84 1002.1
20260505083805 71 172 9.0 20.0 0.00 0.00 0.00 84 1002.2
20260505083306 71 183 13.0 22.0 0.00 0.00 0.00 84 1002.2
20260505082305 71 184 9.0 17.0 0.00 0.00 0.00 83 1002.4
20260505081305 71 193 12.0 21.0 0.00 0.00 0.00 83 1002.4
20260505080805 71 171 10.0 17.0 0.00 0.00 0.00 83 1002.4
20260505080305 71 174 12.0 20.0 0.00 0.00 0.00 83 1002.6
20260505075805 72 202 10.0 22.0 0.00 0.00 0.00 82 1002.6
20260505075305 72 192 10.0 22.0 0.00 0.00 0.00 82 1002.6
20260505073805 72 185 14.0 24.0 0.00 0.00 0.00 81 1002.7
20260505073305 72 195 14.0 23.0 0.00 0.00 0.00 81 1002.7
20260505070806 72 183 13.0 28.0 0.00 0.00 0.00 80 1003.2
20260505065805 73 195 13.0 23.0 0.00 0.00 0.00 79 1003.3
20260505065305 73 190 10.0 22.0 0.00 0.00 0.00 79 1003.3
20260505064305 73 181 14.0 24.0 0.00 0.00 0.00 78 1003.5
20260505063305 73 176 11.0 23.0 0.00 0.00 0.00 78 1003.5
20260505062805 72 194 12.0 22.0 0.00 0.00 0.00 78 1003.5
20260505055305 73 174 10.0 24.0 0.00 0.00 0.00 77 1003.9
20260505053805 73 190 10.0 18.0 0.00 0.00 0.00 76 1003.9
20260505053305 73 172 9.0 17.0 0.00 0.00 0.00 76 1003.9
20260505052304 73 192 10.0 16.0 0.00 0.00 0.00 76 1004.0
20260505050932 73 180 9.0 20.0 0.00 0.00 0.00 75 1004.1
20260505041304 74 173 13.0 26.0 0.00 0.00 0.00 73 1004.3
20260505035304 74 186 13.0 21.0 0.00 0.00 0.00 72 1004.2
20260505033804 74 178 13.0 25.0 0.00 0.00 0.00 72 1004.2
20260505032805 74 170 10.0 20.0 0.00 0.00 0.00 72 1004.4
20260505032305 74 167 10.0 20.0 0.00 0.00 0.00 72 1004.4
20260505031805 74 172 9.0 16.0 0.00 0.00 0.00 71 1004.4
20260505031305 75 169 13.0 24.0 0.00 0.00 0.00 71 1004.4
20260505030304 75 167 12.0 20.0 0.00 0.00 0.00 71 1004.3
20260505025305 75 176 12.0 20.0 0.00 0.00 0.00 71 1004.4
20260505021804 75 172 11.0 21.0 0.00 0.00 0.00 70 1004.3
20260505021304 75 168 8.0 17.0 0.00 0.00 0.00 70 1004.1
20260505020304 75 169 10.0 20.0 0.00 0.00 0.00 69 1004.0
20260505015804 76 173 11.0 18.0 0.00 0.00 0.00 68 1004.0
20260505015304 76 170 8.0 17.0 0.00 0.00 0.00 68 1004.1
20260505012808 76 186 11.0 25.0 0.00 0.00 0.00 66 1004.0
20260505012308 76 180 10.0 18.0 0.00 0.00 0.00 66 1004.0
20260505011308 77 185 12.0 21.0 0.00 0.00 0.00 66 1004.0
20260505010309 77 184 13.0 21.0 0.00 0.00 0.00 66 1004.0
20260505005808 77 170 9.0 14.0 0.00 0.00 0.00 65 1004.0
20260505000308 79 184 14.0 25.0 0.00 0.00 0.00 62 1004.0
20260504234808 79 168 13.0 30.0 0.00 0.00 0.00 62 1004.2
20260504232808 79 203 13.0 29.0 0.00 0.00 0.00 61 1004.3
20260504231308 80 204 14.0 30.0 0.00 0.00 0.00 59 1004.8
20260504225817 80 181 16.0 30.0 0.00 0.00 0.00 59 1004.8
20260504225308 81 162 13.0 25.0 0.00 0.00 0.00 58 1004.8
20260504224807 81 170 12.0 23.0 0.00 0.00 0.00 58 1004.8
20260504224308 81 188 12.0 25.0 0.00 0.00 0.00 58 1004.9
20260504220807 81 171 11.0 25.0 0.00 0.00 0.00 57 1005.1
20260504215308 82 196 15.0 26.0 0.00 0.00 0.00 56 1005.3
20260504214807 82 172 15.0 24.0 0.00 0.00 0.00 56 1005.3
20260504214308 81 178 12.0 26.0 0.00 0.00 0.00 57 1005.3
20260504213807 81 191 12.0 25.0 0.00 0.00 0.00 57 1006.1
20260504212308 81 183 14.0 22.0 0.00 0.00 0.00 57 1006.1
20260504211308 81 179 11.0 23.0 0.00 0.00 0.00 57 1006.1
20260504210807 81 180 16.0 25.0 0.00 0.00 0.00 56 1006.1
20260504205808 81 198 13.0 25.0 0.00 0.00 0.00 56 1006.1
20260504204808 81 183 16.0 25.0 0.00 0.00 0.00 56 1007.1
20260504204307 81 156 12.0 24.0 0.00 0.00 0.00 56 1007.1
20260504203307 81 165 16.0 26.0 0.00 0.00 0.00 55 1007.1
20260504201308 82 168 12.0 23.0 0.00 0.00 0.00 55 1007.1